Location: Lesignano de� Bagni
(44.6500°N, 10.3000°E)
Time: 10:26:02
(UTC+00:00)

NOSS 3-3 (C) - Pass Details

Date: 03 March 2021
Orbit: 813 x 1399 km, 63.4° (Epoch: 15 April)

Event Time Altitude Azimuth Distance (km) Brightness Sun altitude
Rises 20:09:01 0° 322° (NW) 3,965 8.1 -32.0°
Reaches altitude 10° 20:11:35 10° 324° (NW) 3,082 7.3 -32.4°
Enters shadow 20:18:50 78° 25° (NNE) 1,308 4.5 -33.6°
